Voltar ao catálogo

VELA 9/10 INTERSTAGE

AtivoMilitarHEO
NORAD 60001·PAYLOAD·🇺🇸 United States

Lançado May 23, 1969 de Cape Canaveral Space Force Station

Loading…

Próximas Passagens (próximas 24 horas)

TLE

ObsoletoSource: Space-Track

Época: Aug 15, 2026, 13:45 UTC

1 60001U 69046G   26227.57328269 -.00001077  00000-0  00000-0 0  9999
2 60001  17.5690  38.8285 8013205 270.2721   0.4542  0.46172440 21737

Acompanhe VELA 9/10 INTERSTAGE em tempo real com AllMySat

Download on the App Store